Location: Gleizolles
(44.4833°N, 6.7667°E)
Time: 10:21:34
(UTC+00:00)

Tiros 1 - Pass Details

Date: 29 June 2024
Orbit: 624 x 656 km, 48.4° (Epoch: 20 July)

Event Time Altitude Azimuth Distance (km) Brightness Sun altitude
Rises 19:05:25 0° 188° (S) 2,893 10.2 1.6°
Reaches altitude 10° 19:08:53 10° 160° (SSE) 1,988 9.2 1.1°
Maximum altitude 19:10:59 13° 133° (SE) 1,792 8.8 0.8°
Drops below altitude 10° 19:13:05 10° 105° (ESE) 1,991 9.1 0.4°
Sets 19:16:33 0° 78° (ENE) 2,902 10.1 -0.1°
